Location: Châteauvieux
(47.2310°N, 1.3828°E)
Time: 00:40:58
(UTC+00:00)

PSLV R/B - Pass Details

Date: 15 May 2026
Orbit: 586 x 678 km, 97.9° (Epoch: 9 June)

Event Time Altitude Azimuth Distance (km) Brightness Sun altitude
Rises 23:10:59 0° 16° (NNE) 2,878 8.0 -23.1°
Reaches altitude 10° 23:13:10 10° 20° (NNE) 1,982 7.0 -23.2°
Enters shadow 23:17:25 61° 99° (E) 714 3.7 -23.3°
